Showing default

HIMAWARI 1 (GMS 1), 10143

Orbit data source: Space-Track

HIMAWARI 1 (GMS 1), 10143 is a payload satellite owned by NASDA (JP) in GEO that was launched on Thu, 14 Jul 1977 UTC via a DELTA 2914 launch vehicle from the Air Force Eastern Test Range (AFETR). Payload-class satellites include a variety of spacecraft equipped with specific instruments for various scientific and technological missions. These include communications satellites like Starlink; space stations such as the ISS; scientific satellites like the Hubble; Earth observation satellites from companies like Planet Labs, Umbra, and HawkEye 360; GPS; miniature CubeSats for education and research; and military/defense satellites.

Not visible in the next 10 days
Identifier
10143, 1977-065A
Orbit
GEO
Country
Flag of JPJP / JPN
Related business
Manufacturer
HSES/NEC
Mission
Non-operational spacecraft
Bus & Motor
HS-335, STAR 27
Mass
664 kg wet, 258 kg dry
Launch date (UTC)
1977-07-14 (48 years ago)
Launch vehicle
DELTA 2914
Launch site
Air Force Eastern Test Range (AFETR)
Object type
Payload
Rocket body
Debris
Shape & HBR
Unknown
Radar Cross Section
Large (>1 m²)

Expand to show TLE details & history
Last TLE update: 1 day ago

TLE from 1 day ago
0 HIMAWARI 1 (GMS 1)
1 10143U 77065A   25350.92564626  .00000120  00000-0  00000-0 0  9992
2 10143   6.9540 294.0145 0016851 250.8328 297.3423  0.99246164119416
Epoch: 2025-12-16T22:12Z
TLE epoch observation values (Epoch: 2025-12-16T22:12:55.836Z)
Latitude
-0.95602°
Longitude
62.89634°
Altitude
36,043.824 km
Speed
3.067 km/s
True Right ascension
08h 07m 43s
True Declination
0° 57' 18"
Sunlit
Object was in daylight at epoch
Visualization orbit readout
Latitude
Unknown
Longitude
Unknown
Altitude
Unknown
Speed
Unknown
Apparent Right ascension
Unknown
Apparent Declination
Unknown
Sunlit
N/A
Visualization observer readout
Local Sidereal Time
00:11:14
Azimuth
Unknown
Elevation
Unknown
Doppler factor
Unknown
Orbital elements
Apogee altitude
36,149.17 km
Perigee altitude
36,006.085 km
Semi-major axis
42,455.765 km
Eccentricity
0.00169
Inclination
6.954°
RAAN
294.0145°
Arg. of periapsis
250.8328°
True anomaly
297.17061°
Mean anomaly
297.3423°
Eccentric anomaly
297.25647°
Mean motion
0.24811 °/min
Orbital period
1,450.99 mins
BSTAR
0
Loading maneuver chart data...
Computing Atmospheric mass density...
Loading historical data...
Loading historical data...
Loading historical data...
Loading historical data...
Loading historical data...
Loading historical data...
Loading historical data...

Documentation

Showing up to 5 results
|